sat.trackr.live / text

‹ back to catalog

STARLINK-33916

NORAD 63792 · 2025-091T

PAYLOAD ACTIVE UNKNOWN

§ Identity

Operator
Country
US
Launch date
2025-05-02
Launch site
AFETR
Launch vehicle
Mass (kg)
RCS (m²)

Purposes: comms

External: N2YO · Heavens-Above · Gunter

§ Orbital elements

Epoch: 2026-05-24T23:02:54.341088Z

Period
94.27 min
Inclination
43.0001°
Eccentricity
0.0001579
Mean motion
15.27592155 rev/d
Perigee alt
481.9 km
Apogee alt
484.1 km
Semi-major
6,861.1 km
B*
6.0640e-4
RAAN
342.0632°
Arg perigee
267.2526°
Mean anomaly
92.8145°
Rev number
6,056

§ Raw data

STARLINK-339161 63792U 25091T   26144.96035117  .00016468  00000+0  60640-3 0  99962 63792  43.0001 342.0632 0001579 267.2526  92.8145 15.27592155 60567

JSON: /api/v1/satellites/63792 · /tle

For live sub-satellite position, see the globe view (requires WebGL).

§ Visibility from observer

Set your observer location to see the next 7 days of passes ≥ 10°. The values pass through the URL so the page stays shareable.

No JS? Fill the form by hand. The geolocation button needs JavaScript.